| time (UTC) | temp C | wind direction | speed KPH | gust KPH | rain 1hr cm | rain 24hr cm | rain mn cm | humidity % | barometer mb |
| 20260831172405 | 26 | 180 | 3.2 | 22.5 | 0.00 | 0.00 | 0.00 | 50 | 1018.7 |
| 20260831171405 | 26 | 107 | 1.6 | 16.1 | 0.00 | 0.00 | 0.00 | 49 | 1018.6 |
| 20260831170906 | 26 | 115 | 4.8 | 20.9 | 0.00 | 0.00 | 0.00 | 49 | 1018.7 |
| 20260831170405 | 26 | 94 | 1.6 | 16.1 | 0.00 | 0.00 | 0.00 | 49 | 1018.7 |
| 20260831165905 | 27 | 92 | 1.6 | 16.1 | 0.00 | 0.00 | 0.00 | 48 | 1018.6 |
| 20260831165405 | 27 | 56 | 3.2 | 16.1 | 0.00 | 0.00 | 0.00 | 47 | 1018.7 |
| 20260831164405 | 27 | 108 | 1.6 | 24.1 | 0.00 | 0.00 | 0.00 | 45 | 1018.6 |
| 20260831163405 | 27 | 123 | 1.6 | 12.9 | 0.00 | 0.00 | 0.00 | 43 | 1018.5 |
| 20260831162906 | 27 | 126 | 3.2 | 12.9 | 0.00 | 0.00 | 0.00 | 44 | 1018.5 |
| 20260831162405 | 27 | 47 | 3.2 | 19.3 | 0.00 | 0.00 | 0.00 | 43 | 1018.5 |
| 20260831161405 | 28 | 136 | 6.4 | 20.9 | 0.00 | 0.00 | 0.00 | 42 | 1018.5 |
| 20260831160405 | 28 | 118 | 3.2 | 16.1 | 0.00 | 0.00 | 0.00 | 39 | 1018.7 |
| 20260831155406 | 28 | 144 | 9.7 | 22.5 | 0.00 | 0.00 | 0.00 | 39 | 1018.8 |
| 20260831154905 | 28 | 100 | 1.6 | 16.1 | 0.00 | 0.00 | 0.00 | 40 | 1018.8 |
| 20260831154405 | 28 | 159 | 1.6 | 9.7 | 0.00 | 0.00 | 0.00 | 39 | 1018.7 |
| 20260831153905 | 28 | 94 | 1.6 | 11.3 | 0.00 | 0.00 | 0.00 | 38 | 1018.8 |
| 20260831153405 | 28 | 230 | 3.2 | 12.9 | 0.00 | 0.00 | 0.00 | 38 | 1018.8 |
| 20260831152905 | 28 | 69 | 1.6 | 11.3 | 0.00 | 0.00 | 0.00 | 38 | 1018.8 |
| 20260831152406 | 28 | 100 | 3.2 | 19.3 | 0.00 | 0.00 | 0.00 | 39 | 1018.8 |
| 20260831151405 | 28 | 0 | 1.6 | 12.9 | 0.00 | 0.00 | 0.00 | 37 | 1018.7 |
| 20260831150905 | 29 | 14 | 3.2 | 9.7 | 0.00 | 0.00 | 0.00 | 37 | 1018.7 |
| 20260831150405 | 29 | 82 | 8.0 | 24.1 | 0.00 | 0.00 | 0.00 | 38 | 1018.7 |
| 20260831145905 | 29 | 95 | 1.6 | 14.5 | 0.00 | 0.00 | 0.00 | 37 | 1018.8 |
| 20260831145405 | 29 | 103 | 3.2 | 19.3 | 0.00 | 0.00 | 0.00 | 37 | 1018.8 |
| 20260831144905 | 29 | 107 | 0.0 | 16.1 | 0.00 | 0.00 | 0.00 | 35 | 1018.8 |
| 20260831144405 | 29 | 343 | 1.6 | 16.1 | 0.00 | 0.00 | 0.00 | 35 | 1018.9 |
| 20260831143905 | 29 | 138 | 3.2 | 12.9 | 0.00 | 0.00 | 0.00 | 33 | 1018.9 |
| 20260831143406 | 29 | 76 | 3.2 | 12.9 | 0.00 | 0.00 | 0.00 | 34 | 1018.9 |
| 20260831142905 | 29 | 318 | 0.0 | 12.9 | 0.00 | 0.00 | 0.00 | 33 | 1018.9 |
| 20260831142405 | 29 | 88 | 1.6 | 11.3 | 0.00 | 0.00 | 0.00 | 32 | 1019.1 |
| 20260831141905 | 29 | 103 | 1.6 | 11.3 | 0.00 | 0.00 | 0.00 | 33 | 1019.1 |
| 20260831141405 | 29 | 79 | 9.7 | 22.5 | 0.00 | 0.00 | 0.00 | 32 | 1019.1 |
| 20260831140906 | 29 | 118 | 6.4 | 22.5 | 0.00 | 0.00 | 0.00 | 34 | 1019.2 |
| 20260831140405 | 29 | 73 | 1.6 | 14.5 | 0.00 | 0.00 | 0.00 | 35 | 1019.2 |
| 20260831135905 | 29 | 84 | 1.6 | 14.5 | 0.00 | 0.00 | 0.00 | 36 | 1019.1 |
| 20260831134905 | 29 | 122 | 3.2 | 12.9 | 0.00 | 0.00 | 0.00 | 37 | 1019.3 |
| 20260831134405 | 28 | 164 | 1.6 | 16.1 | 0.00 | 0.00 | 0.00 | 37 | 1019.2 |
| 20260831133905 | 28 | 106 | 4.8 | 19.3 | 0.00 | 0.00 | 0.00 | 38 | 1019.2 |
| 20260831133405 | 28 | 167 | 6.4 | 19.3 | 0.00 | 0.00 | 0.00 | 39 | 1019.3 |
| 20260831132905 | 28 | 115 | 4.8 | 22.5 | 0.00 | 0.00 | 0.00 | 39 | 1019.4 |
| 20260831132405 | 28 | 67 | 4.8 | 20.9 | 0.00 | 0.00 | 0.00 | 38 | 1019.4 |
| 20260831131906 | 28 | 125 | 1.6 | 19.3 | 0.00 | 0.00 | 0.00 | 39 | 1019.4 |
| 20260831125905 | 28 | 119 | 3.2 | 16.1 | 0.00 | 0.00 | 0.00 | 40 | 1019.5 |
| 20260831125405 | 28 | 117 | 3.2 | 12.9 | 0.00 | 0.00 | 0.00 | 38 | 1019.5 |
| 20260831124905 | 28 | 176 | 3.2 | 16.1 | 0.00 | 0.00 | 0.00 | 39 | 1019.6 |
| 20260831124405 | 28 | 208 | 3.2 | 12.9 | 0.00 | 0.00 | 0.00 | 38 | 1019.5 |
| 20260831123905 | 28 | 93 | 3.2 | 14.5 | 0.00 | 0.00 | 0.00 | 38 | 1019.7 |
| 20260831123405 | 28 | 112 | 3.2 | 11.3 | 0.00 | 0.00 | 0.00 | 38 | 1019.7 |
| 20260831122905 | 28 | 157 | 4.8 | 19.3 | 0.00 | 0.00 | 0.00 | 39 | 1019.7 |
| 20260831122405 | 28 | 147 | 3.2 | 19.3 | 0.00 | 0.00 | 0.00 | 39 | 1019.8 |
| 20260831121905 | 28 | 134 | 3.2 | 22.5 | 0.00 | 0.00 | 0.00 | 41 | 1019.9 |
| 20260831121405 | 28 | 172 | 6.4 | 16.1 | 0.00 | 0.00 | 0.00 | 41 | 1019.9 |
| 20260831120905 | 28 | 105 | 1.6 | 19.3 | 0.00 | 0.00 | 0.00 | 42 | 1020.0 |
| 20260831120405 | 27 | 321 | 0.0 | 8.0 | 0.00 | 0.00 | 0.00 | 42 | 1020.0 |
| 20260831115905 | 27 | 128 | 3.2 | 19.3 | 0.00 | 0.00 | 0.00 | 43 | 1020.0 |
| 20260831115405 | 27 | 107 | 0.0 | 4.8 | 0.00 | 0.00 | 0.00 | 43 | 1020.0 |
| 20260831114905 | 27 | 267 | 1.6 | 14.5 | 0.00 | 0.00 | 0.00 | 44 | 1020.1 |
| 20260831114405 | 27 | 107 | 3.2 | 14.5 | 0.00 | 0.00 | 0.00 | 44 | 1020.1 |
| 20260831113405 | 27 | 160 | 3.2 | 12.9 | 0.00 | 0.00 | 0.00 | 45 | 1020.3 |
| 20260831112905 | 27 | 52 | 0.0 | 4.8 | 0.00 | 0.00 | 0.00 | 46 | 1020.3 |
| 20260831112405 | 27 | 98 | 1.6 | 16.1 | 0.00 | 0.00 | 0.00 | 47 | 1020.4 |
| 20260831111905 | 26 | 110 | 3.2 | 19.3 | 0.00 | 0.00 | 0.00 | 47 | 1020.4 |
| 20260831111405 | 26 | 106 | 3.2 | 19.3 | 0.00 | 0.00 | 0.00 | 47 | 1020.4 |
| 20260831110905 | 27 | 105 | 1.6 | 19.3 | 0.00 | 0.00 | 0.00 | 47 | 1020.4 |
| 20260831110405 | 26 | 85 | 3.2 | 12.9 | 0.00 | 0.00 | 0.00 | 48 | 1020.4 |
| 20260831105905 | 26 | 167 | 0.0 | 14.5 | 0.00 | 0.00 | 0.00 | 47 | 1020.4 |
| 20260831105405 | 26 | 230 | 1.6 | 9.7 | 0.00 | 0.00 | 0.00 | 47 | 1020.4 |
| 20260831104405 | 26 | 134 | 1.6 | 9.7 | 0.00 | 0.00 | 0.00 | 51 | 1020.6 |
| 20260831103905 | 26 | 61 | 1.6 | 12.9 | 0.00 | 0.00 | 0.00 | 51 | 1020.6 |
| 20260831103405 | 25 | 118 | 3.2 | 11.3 | 0.00 | 0.00 | 0.00 | 52 | 1020.7 |
| 20260831102905 | 25 | 133 | 1.6 | 12.9 | 0.00 | 0.00 | 0.00 | 52 | 1020.7 |
| 20260831102405 | 25 | 98 | 1.6 | 11.3 | 0.00 | 0.00 | 0.00 | 53 | 1020.7 |
| 20260831101905 | 25 | 123 | 0.0 | 11.3 | 0.00 | 0.00 | 0.00 | 53 | 1020.7 |
| 20260831101405 | 25 | 142 | 1.6 | 12.9 | 0.00 | 0.00 | 0.00 | 54 | 1020.7 |
| 20260831100905 | 25 | 125 | 1.6 | 12.9 | 0.00 | 0.00 | 0.00 | 54 | 1020.7 |
| 20260831095905 | 25 | 143 | 0.0 | 11.3 | 0.00 | 0.00 | 0.00 | 55 | 1020.7 |
| 20260831095405 | 24 | 139 | 1.6 | 11.3 | 0.00 | 0.00 | 0.00 | 57 | 1020.7 |
| 20260831094905 | 23 | 157 | 0.0 | 9.7 | 0.00 | 0.00 | 0.00 | 59 | 1020.7 |
| 20260831094405 | 23 | 122 | 0.0 | 8.0 | 0.00 | 0.00 | 0.00 | 59 | 1020.7 |
| 20260831093905 | 23 | 144 | 0.0 | 8.0 | 0.00 | 0.00 | 0.00 | 59 | 1020.6 |
| 20260831092905 | 23 | 160 | 1.6 | 11.3 | 0.00 | 0.00 | 0.00 | 62 | 1020.6 |
| 20260831092405 | 22 | 102 | 3.2 | 11.3 | 0.00 | 0.00 | 0.00 | 63 | 1020.7 |
| 20260831091906 | 22 | 144 | 1.6 | 11.3 | 0.00 | 0.00 | 0.00 | 65 | 1020.7 |
| 20260831091405 | 22 | 133 | 1.6 | 14.5 | 0.00 | 0.00 | 0.00 | 65 | 1020.6 |
| 20260831090905 | 22 | 138 | 1.6 | 11.3 | 0.00 | 0.00 | 0.00 | 65 | 1020.7 |
| 20260831090405 | 21 | 16 | 1.6 | 12.9 | 0.00 | 0.00 | 0.00 | 66 | 1020.6 |
| 20260831085405 | 21 | 132 | 0.0 | 9.7 | 0.00 | 0.00 | 0.00 | 67 | 1020.8 |
| 20260831084905 | 21 | 92 | 1.6 | 11.3 | 0.00 | 0.00 | 0.00 | 67 | 1020.8 |
| 20260831084405 | 21 | 140 | 0.0 | 4.8 | 0.00 | 0.00 | 0.00 | 68 | 1020.9 |
| 20260831083905 | 21 | 101 | 3.2 | 19.3 | 0.00 | 0.00 | 0.00 | 69 | 1020.9 |
| 20260831083405 | 20 | 143 | 0.0 | 11.3 | 0.00 | 0.00 | 0.00 | 72 | 1020.9 |
| 20260831082904 | 20 | 103 | 0.0 | 8.0 | 0.00 | 0.00 | 0.00 | 72 | 1020.8 |
| 20260831081905 | 20 | 123 | 0.0 | 8.0 | 0.00 | 0.00 | 0.00 | 77 | 1020.7 |
| 20260831081405 | 19 | 134 | 1.6 | 11.3 | 0.00 | 0.00 | 0.00 | 77 | 1020.7 |
| 20260831080905 | 19 | 123 | 1.6 | 4.8 | 0.00 | 0.00 | 0.00 | 78 | 1020.8 |
| 20260831080405 | 18 | 140 | 1.6 | 8.0 | 0.00 | 0.00 | 0.00 | 80 | 1020.9 |
| 20260831075905 | 18 | 135 | 3.2 | 8.0 | 0.00 | 0.00 | 0.00 | 80 | 1020.9 |
| 20260831075405 | 18 | 136 | 1.6 | 11.3 | 0.00 | 0.00 | 0.00 | 81 | 1020.7 |
| 20260831074905 | 18 | 142 | 0.0 | 4.8 | 0.00 | 0.00 | 0.00 | 82 | 1020.6 |
| 20260831074405 | 18 | 129 | 3.2 | 14.5 | 0.00 | 0.00 | 0.00 | 83 | 1020.6 |
| 20260831073905 | 17 | 113 | 0.0 | 4.8 | 0.00 | 0.00 | 0.00 | 84 | 1020.5 |
| 20260831073404 | 17 | 113 | 0.0 | 0.0 | 0.00 | 0.00 | 0.00 | 85 | 1020.6 |
| 20260831072905 | 17 | 113 | 0.0 | 0.0 | 0.00 | 0.00 | 0.00 | 85 | 1020.5 |
| 20260831072405 | 17 | 113 | 0.0 | 0.0 | 0.00 | 0.00 | 0.00 | 86 | 1020.4 |
| 20260831071905 | 17 | 113 | 0.0 | 0.0 | 0.00 | 0.00 | 0.00 | 87 | 1020.3 |
| 20260831071405 | 17 | 113 | 0.0 | 4.8 | 0.00 | 0.00 | 0.00 | 88 | 1020.3 |
| 20260831070905 | 16 | 113 | 0.0 | 0.0 | 0.00 | 0.00 | 0.00 | 88 | 1020.2 |
| 20260831070405 | 16 | 135 | 0.0 | 3.2 | 0.00 | 0.00 | 0.00 | 88 | 1020.2 |
| 20260831065904 | 16 | 135 | 0.0 | 0.0 | 0.00 | 0.00 | 0.00 | 89 | 1020.1 |
| 20260831065405 | 16 | 135 | 0.0 | 1.6 | 0.00 | 0.00 | 0.00 | 89 | 1020.2 |
| 20260831064405 | 16 | 135 | 3.2 | 8.0 | 0.00 | 0.00 | 0.00 | 90 | 1020.2 |
| 20260831063405 | 16 | 135 | 0.0 | 3.2 | 0.00 | 0.00 | 0.00 | 90 | 1020.3 |
| 20260831062405 | 16 | 135 | 0.0 | 0.0 | 0.00 | 0.00 | 0.00 | 90 | 1020.2 |
| 20260831061904 | 16 | 135 | 0.0 | 0.0 | 0.00 | 0.00 | 0.00 | 90 | 1020.2 |
| 20260831061405 | 16 | 135 | 0.0 | 0.0 | 0.00 | 0.00 | 0.00 | 90 | 1020.2 |
| 20260831060905 | 16 | 135 | 0.0 | 3.2 | 0.00 | 0.00 | 0.00 | 90 | 1020.2 |
| 20260831060405 | 16 | 135 | 0.0 | 0.0 | 0.00 | 0.00 | 0.00 | 90 | 1020.1 |
| 20260831055904 | 16 | 135 | 0.0 | 0.0 | 0.00 | 0.00 | 0.00 | 89 | 1020.1 |
| 20260831055405 | 16 | 135 | 0.0 | 11.3 | 0.00 | 0.00 | 0.00 | 89 | 1020.1 |
| 20260831054905 | 16 | 98 | 1.6 | 8.0 | 0.00 | 0.00 | 0.00 | 89 | 1020.0 |
| 20260831054405 | 16 | 124 | 3.2 | 14.5 | 0.00 | 0.00 | 0.00 | 89 | 1020.0 |
| 20260831053905 | 16 | 140 | 3.2 | 14.5 | 0.00 | 0.00 | 0.00 | 89 | 1020.1 |
| 20260831052907 | 16 | 116 | 1.6 | 11.3 | 0.00 | 0.00 | 0.00 | 89 | 1020.0 |
| 20260831052405 | 16 | 146 | 3.2 | 12.9 | 0.00 | 0.00 | 0.00 | 89 | 1020.0 |
| 20260831051404 | 16 | 100 | 1.6 | 12.9 | 0.00 | 0.00 | 0.00 | 88 | 1019.9 |
| 20260831050905 | 16 | 104 | 0.0 | 11.3 | 0.00 | 0.00 | 0.00 | 88 | 1019.9 |
| 20260831050405 | 16 | 146 | 1.6 | 9.7 | 0.00 | 0.00 | 0.00 | 88 | 1020.0 |
| 20260831045904 | 16 | 109 | 0.0 | 12.9 | 0.00 | 0.00 | 0.00 | 88 | 1020.0 |
| 20260831044905 | 16 | 114 | 0.0 | 11.3 | 0.00 | 0.00 | 0.00 | 87 | 1020.0 |
| 20260831044405 | 16 | 131 | 1.6 | 4.8 | 0.00 | 0.00 | 0.00 | 87 | 1020.0 |
| 20260831043906 | 16 | 162 | 0.0 | 0.0 | 0.00 | 0.00 | 0.00 | 87 | 1020.0 |
| 20260831043405 | 16 | 170 | 0.0 | 0.0 | 0.00 | 0.00 | 0.00 | 87 | 1020.0 |
| 20260831042905 | 16 | 53 | 0.0 | 4.8 | 0.00 | 0.00 | 0.00 | 86 | 1020.0 |
| 20260831042404 | 16 | 109 | 1.6 | 9.7 | 0.00 | 0.00 | 0.00 | 86 | 1020.0 |
| 20260831041905 | 16 | 156 | 0.0 | 9.7 | 0.00 | 0.00 | 0.00 | 86 | 1020.0 |
| 20260831041405 | 16 | 86 | 0.0 | 9.7 | 0.00 | 0.00 | 0.00 | 86 | 1020.0 |
| 20260831040905 | 16 | 83 | 0.0 | 11.3 | 0.00 | 0.00 | 0.00 | 86 | 1020.0 |
| 20260831035404 | 16 | 125 | 6.4 | 19.3 | 0.00 | 0.00 | 0.00 | 85 | 1020.1 |
| 20260831034404 | 16 | 134 | 0.0 | 8.0 | 0.00 | 0.00 | 0.00 | 85 | 1020.1 |
| 20260831033905 | 16 | 120 | 1.6 | 9.7 | 0.00 | 0.00 | 0.00 | 85 | 1020.2 |
| 20260831033405 | 16 | 112 | 0.0 | 4.8 | 0.00 | 0.00 | 0.00 | 85 | 1020.1 |
| 20260831032405 | 16 | 123 | 1.6 | 14.5 | 0.00 | 0.00 | 0.00 | 84 | 1020.2 |
| 20260831031905 | 16 | 129 | 1.6 | 9.7 | 0.00 | 0.00 | 0.00 | 85 | 1020.2 |
| 20260831031404 | 16 | 134 | 0.0 | 0.0 | 0.00 | 0.00 | 0.00 | 84 | 1020.2 |
| 20260831030905 | 16 | 131 | 1.6 | 9.7 | 0.00 | 0.00 | 0.00 | 84 | 1020.2 |
| 20260831030405 | 16 | 134 | 0.0 | 9.7 | 0.00 | 0.00 | 0.00 | 84 | 1020.1 |
| 20260831025905 | 16 | 130 | 0.0 | 8.0 | 0.00 | 0.00 | 0.00 | 84 | 1020.3 |
| 20260831025405 | 16 | 156 | 1.6 | 11.3 | 0.00 | 0.00 | 0.00 | 84 | 1020.3 |
| 20260831024905 | 16 | 117 | 3.2 | 12.9 | 0.00 | 0.00 | 0.00 | 84 | 1020.4 |
| 20260831024404 | 16 | 148 | 0.0 | 12.9 | 0.00 | 0.00 | 0.00 | 84 | 1020.4 |
| 20260831023905 | 16 | 118 | 0.0 | 4.8 | 0.00 | 0.00 | 0.00 | 84 | 1020.4 |
| 20260831023405 | 16 | 144 | 1.6 | 8.0 | 0.00 | 0.00 | 0.00 | 84 | 1020.4 |
| 20260831022905 | 16 | 135 | 1.6 | 11.3 | 0.00 | 0.00 | 0.00 | 84 | 1020.4 |
| 20260831022404 | 16 | 90 | 0.0 | 1.6 | 0.00 | 0.00 | 0.00 | 84 | 1020.4 |
| 20260831021904 | 16 | 163 | 1.6 | 12.9 | 0.00 | 0.00 | 0.00 | 84 | 1020.4 |
| 20260831021405 | 16 | 164 | 0.0 | 4.8 | 0.00 | 0.00 | 0.00 | 84 | 1020.4 |
| 20260831020905 | 16 | 107 | 3.2 | 19.3 | 0.00 | 0.00 | 0.00 | 84 | 1020.3 |
| 20260831015905 | 16 | 142 | 1.6 | 9.7 | 0.00 | 0.00 | 0.00 | 84 | 1020.4 |
| 20260831015404 | 17 | 40 | 4.8 | 12.9 | 0.00 | 0.00 | 0.00 | 84 | 1020.4 |
| 20260831014905 | 17 | 106 | 1.6 | 4.8 | 0.00 | 0.00 | 0.00 | 84 | 1020.4 |
| 20260831013905 | 17 | 168 | 3.2 | 16.1 | 0.00 | 0.00 | 0.00 | 85 | 1020.4 |
| 20260831013405 | 17 | 122 | 1.6 | 19.3 | 0.00 | 0.00 | 0.00 | 85 | 1020.4 |
| 20260831012405 | 17 | 98 | 0.0 | 12.9 | 0.00 | 0.00 | 0.00 | 85 | 1020.3 |
| 20260831011905 | 17 | 48 | 1.6 | 8.0 | 0.00 | 0.00 | 0.00 | 85 | 1020.2 |
| 20260831011404 | 17 | 126 | 1.6 | 19.3 | 0.00 | 0.00 | 0.00 | 85 | 1020.3 |
| 20260831010904 | 17 | 86 | 0.0 | 4.8 | 0.00 | 0.00 | 0.00 | 85 | 1020.3 |
| 20260831010405 | 17 | 139 | 0.0 | 3.2 | 0.00 | 0.00 | 0.00 | 85 | 1020.3 |
| 20260831005904 | 17 | 109 | 1.6 | 12.9 | 0.00 | 0.00 | 0.00 | 85 | 1020.3 |
| 20260831005405 | 17 | 144 | 0.0 | 8.0 | 0.00 | 0.00 | 0.00 | 85 | 1020.3 |
| 20260831004904 | 17 | 22 | 0.0 | 0.0 | 0.00 | 0.00 | 0.00 | 85 | 1020.3 |
| 20260831004405 | 17 | 19 | 0.0 | 9.7 | 0.00 | 0.00 | 0.00 | 85 | 1020.2 |
| 20260831003904 | 17 | 122 | 3.2 | 14.5 | 0.00 | 0.00 | 0.00 | 85 | 1020.3 |
| 20260831003405 | 17 | 140 | 4.8 | 16.1 | 0.00 | 0.00 | 0.00 | 85 | 1020.2 |
| 20260831002905 | 17 | 83 | 3.2 | 19.3 | 0.00 | 0.00 | 0.00 | 85 | 1020.2 |
| 20260831002404 | 17 | 122 | 3.2 | 9.7 | 0.00 | 0.00 | 0.00 | 85 | 1020.3 |
| 20260831001904 | 17 | 61 | 0.0 | 1.6 | 0.00 | 0.00 | 0.00 | 85 | 1020.3 |
| 20260831001404 | 17 | 122 | 1.6 | 12.9 | 0.00 | 0.00 | 0.00 | 84 | 1020.4 |
| 20260831000904 | 17 | 111 | 0.0 | 11.3 | 0.00 | 0.00 | 0.00 | 84 | 1020.4 |
| 20260831000405 | 17 | 85 | 3.2 | 11.3 | 0.00 | 0.00 | 0.00 | 84 | 1020.4 |
| 20260830235905 | 17 | 84 | 1.6 | 16.1 | 0.00 | 0.00 | 0.00 | 84 | 1020.4 |
| 20260830235404 | 17 | 100 | 1.6 | 16.1 | 0.00 | 0.00 | 0.00 | 84 | 1020.5 |
| 20260830234904 | 17 | 117 | 1.6 | 16.1 | 0.00 | 0.00 | 0.00 | 83 | 1020.4 |
| 20260830234405 | 17 | 160 | 8.0 | 16.1 | 0.00 | 0.00 | 0.00 | 83 | 1020.4 |
| 20260830233904 | 17 | 92 | 8.0 | 22.5 | 0.00 | 0.00 | 0.00 | 83 | 1020.4 |
| 20260830233404 | 17 | 128 | 3.2 | 12.9 | 0.00 | 0.00 | 0.00 | 83 | 1020.5 |
| 20260830232904 | 17 | 98 | 3.2 | 19.3 | 0.00 | 0.00 | 0.00 | 83 | 1020.6 |
| 20260830232404 | 17 | 93 | 4.8 | 22.5 | 0.00 | 0.00 | 0.00 | 82 | 1020.5 |
| 20260830231904 | 17 | 53 | 4.8 | 14.5 | 0.00 | 0.00 | 0.00 | 82 | 1020.5 |
| 20260830231404 | 17 | 69 | 4.8 | 12.9 | 0.00 | 0.00 | 0.00 | 82 | 1020.5 |
| 20260830230404 | 17 | 90 | 3.2 | 11.3 | 0.00 | 0.00 | 0.00 | 81 | 1020.4 |
| 20260830225905 | 18 | 120 | 4.8 | 19.3 | 0.00 | 0.00 | 0.00 | 81 | 1020.4 |
| 20260830225405 | 18 | 103 | 3.2 | 25.7 | 0.00 | 0.00 | 0.00 | 81 | 1020.4 |
| 20260830224904 | 18 | 134 | 6.4 | 19.3 | 0.00 | 0.00 | 0.00 | 81 | 1020.4 |
| 20260830224404 | 18 | 109 | 4.8 | 19.3 | 0.00 | 0.00 | 0.00 | 81 | 1020.5 |
| 20260830223405 | 18 | 134 | 8.0 | 19.3 | 0.00 | 0.00 | 0.00 | 80 | 1020.4 |
| 20260830222404 | 18 | 124 | 3.2 | 12.9 | 0.00 | 0.00 | 0.00 | 80 | 1020.6 |
| 20260830221905 | 18 | 27 | 3.2 | 12.9 | 0.00 | 0.00 | 0.00 | 80 | 1020.4 |
| 20260830221405 | 18 | 103 | 3.2 | 14.5 | 0.00 | 0.00 | 0.00 | 80 | 1020.4 |
| 20260830220904 | 18 | 91 | 1.6 | 11.3 | 0.00 | 0.00 | 0.00 | 80 | 1020.5 |
| 20260830220405 | 18 | 84 | 3.2 | 14.5 | 0.00 | 0.00 | 0.00 | 79 | 1020.5 |
| 20260830215905 | 18 | 44 | 0.0 | 12.9 | 0.00 | 0.00 | 0.00 | 79 | 1020.5 |
| 20260830214904 | 18 | 77 | 1.6 | 12.9 | 0.00 | 0.00 | 0.00 | 78 | 1020.4 |
| 20260830214404 | 19 | 140 | 3.2 | 12.9 | 0.00 | 0.00 | 0.00 | 78 | 1020.5 |
| 20260830213904 | 19 | 116 | 3.2 | 16.1 | 0.00 | 0.00 | 0.00 | 77 | 1020.4 |
| 20260830213404 | 19 | 110 | 1.6 | 20.9 | 0.00 | 0.00 | 0.00 | 76 | 1020.4 |
| 20260830212904 | 19 | 359 | 3.2 | 20.9 | 0.00 | 0.00 | 0.00 | 76 | 1020.3 |
| 20260830212405 | 20 | 104 | 1.6 | 19.3 | 0.00 | 0.00 | 0.00 | 76 | 1020.5 |
| 20260830211904 | 20 | 108 | 4.8 | 19.3 | 0.00 | 0.00 | 0.00 | 75 | 1020.5 |
| 20260830211405 | 20 | 156 | 1.6 | 11.3 | 0.00 | 0.00 | 0.00 | 75 | 1020.5 |
| 20260830210404 | 20 | 109 | 8.0 | 16.1 | 0.00 | 0.00 | 0.00 | 73 | 1020.3 |
| 20260830205905 | 20 | 59 | 9.7 | 20.9 | 0.00 | 0.00 | 0.00 | 73 | 1020.3 |
| 20260830205404 | 20 | 72 | 6.4 | 19.3 | 0.00 | 0.00 | 0.00 | 72 | 1020.3 |
| 20260830204905 | 20 | 98 | 4.8 | 19.3 | 0.00 | 0.00 | 0.00 | 71 | 1020.3 |
| 20260830204404 | 20 | 131 | 4.8 | 12.9 | 0.00 | 0.00 | 0.00 | 71 | 1020.4 |
| 20260830203904 | 21 | 98 | 1.6 | 12.9 | 0.00 | 0.00 | 0.00 | 70 | 1020.3 |
| 20260830203404 | 21 | 98 | 8.0 | 19.3 | 0.00 | 0.00 | 0.00 | 69 | 1020.3 |
| 20260830202905 | 21 | 108 | 1.6 | 14.5 | 0.00 | 0.00 | 0.00 | 69 | 1020.1 |
| 20260830202405 | 21 | 124 | 4.8 | 16.1 | 0.00 | 0.00 | 0.00 | 68 | 1020.1 |
| 20260830201905 | 21 | 123 | 1.6 | 9.7 | 0.00 | 0.00 | 0.00 | 68 | 1020.1 |
| 20260830200405 | 22 | 104 | 4.8 | 11.3 | 0.00 | 0.00 | 0.00 | 67 | 1019.9 |
| 20260830195904 | 22 | 118 | 3.2 | 16.1 | 0.00 | 0.00 | 0.00 | 66 | 1019.9 |
| 20260830195404 | 22 | 137 | 0.0 | 8.0 | 0.00 | 0.00 | 0.00 | 65 | 1019.9 |
| 20260830194905 | 22 | 136 | 4.8 | 11.3 | 0.00 | 0.00 | 0.00 | 64 | 1019.9 |
| 20260830194405 | 22 | 109 | 1.6 | 12.9 | 0.00 | 0.00 | 0.00 | 63 | 1019.6 |
| 20260830193905 | 23 | 57 | 1.6 | 14.5 | 0.00 | 0.00 | 0.00 | 62 | 1019.7 |